Погода в Ранино

Россия / Тамбовская область     52°58′26″N   40°15′17″E
темп.,
°C
ветер,
м/с
пор.,
м/с
влажн.,
%
обл.,
%
осадки,
мм/ч
давл.,
гПа
погр.,
м
15 мая, сб
сб1500:00+18ююв4148475 0.0 1011334
03:00+16ююв379098 0.0 1011142
06:00+17ююв4109520 1.6 1010294
09:00+19ю4990100 1.6 1011436
12:00+18ю2790100 2.5 1012277
15:00+22ю576726 3.1 10121364
18:00+21ю477157 0.9 1012347
21:00+16юз22865 1.0 101326
16 мая, вс
вс1600:00+14ююз22885 0.0 101413
03:00+13ю22908 0.0 101517
06:00+14ю23861 0.0 101581
09:00+21ю23620 0.0 1015516
12:00+24ю35490 0.0 10152000
15:00+25ю244517 0.0 10141970
18:00+23юв1163100 0.0 101430
21:00+18в227475 0.1 101427
17 мая, пн
пн1700:00+16всв369393 2.0 1014112
03:00+15в359471 2.0 101489
06:00+15в398817 0.0 1014201
09:00+21юв466460 0.0 1014387
12:00+25юв584896 0.0 1013730
15:00+27юв5104915 0.0 10121155
18:00+24юв612600 0.0 1011870
21:00+20вюв5167115 0.0 1011472
18 мая, вт
вт1800:00+19юв6186099 0.0 1010519
03:00+17юв4145870 0.0 1010368
06:00+15юв4136936 0.0 1010313
09:00+21ююв5125487 0.0 1010528
12:00+25ююв694459 0.0 1009935
15:00+24ююв4751100 0.0 10091300
18:00+23ююв3761100 0.0 1008536
21:00+18ююз488998 0.4 1009314
19 мая, ср
ср1900:00+16юв239389 0.1 100857
03:00+16юв3692100 0.7 1008140
06:00+16ююв3991100 0.0 1007310
09:00+18ю61183100 0.9 1008839
12:00+17ююз5988100 3.0 1008730
15:00+19ююз610676 4.7 10091576
18:00+18юз58714 0.2 10091084
21:00+13юз259098 0.2 101191